owner,sensor,date,latitude,longitude,vertical_datum,sea_water_temperature,qcFlag 
LUMCON,ioos:station:LUMCON:102:1,2019-02-01T00:00:00Z,29.1870,-90.6093,0.0,11.54,11111222 
LUMCON,ioos:station:LUMCON:102:1,2019-02-01T00:15:00Z,29.1870,-90.6093,0.0,11.57,11111222 
LUMCON,ioos:station:LUMCON:102:1,2019-02-01T00:30:00Z,29.1870,-90.6093,0.0,11.58,11111222 
LUMCON,ioos:station:LUMCON:102:1,2019-02-01T00:45:00Z,29.1870,-90.6093,0.0,11.59,11111222 
LUMCON,ioos:station:LUMCON:102:1,2019-02-01T01:00:00Z,29.1870,-90.6093,0.0,11.6,11111222 
LUMCON,ioos:station:LUMCON:102:1,2019-02-01T01:15:00Z,29.1870,-90.6093,0.0,11.6,11111222 
LUMCON,ioos:station:LUMCON:102:1,2019-02-01T01:30:00Z,29.1870,-90.6093,0.0,11.6,11111222 
LUMCON,ioos:station:LUMCON:102:1,2019-02-01T01:45:00Z,29.1870,-90.6093,0.0,11.62,11111222 
LUMCON,ioos:station:LUMCON:102:1,2019-02-01T02:00:00Z,29.1870,-90.6093,0.0,11.63,11111222 
LUMCON,ioos:station:LUMCON:102:1,2019-02-01T02:15:00Z,29.1870,-90.6093,0.0,11.64,11111222 
LUMCON,ioos:station:LUMCON:102:1,2019-02-01T02:30:00Z,29.1870,-90.6093,0.0,11.65,11111222 
LUMCON,ioos:station:LUMCON:102:1,2019-02-01T02:45:00Z,29.1870,-90.6093,0.0,11.64,11111222 
LUMCON,ioos:station:LUMCON:102:1,2019-02-01T03:00:00Z,29.1870,-90.6093,0.0,11.63,11111222 
LUMCON,ioos:station:LUMCON:102:1,2019-02-01T03:15:00Z,29.1870,-90.6093,0.0,11.61,11111222 
LUMCON,ioos:station:LUMCON:102:1,2019-02-01T03:30:00Z,29.1870,-90.6093,0.0,11.59,11111222 
LUMCON,ioos:station:LUMCON:102:1,2019-02-01T03:45:00Z,29.1870,-90.6093,0.0,11.59,11111222 
LUMCON,ioos:station:LUMCON:102:1,2019-02-01T04:00:00Z,29.1870,-90.6093,0.0,11.6,11111222 
LUMCON,ioos:station:LUMCON:102:1,2019-02-01T04:15:00Z,29.1870,-90.6093,0.0,11.59,11111222 
LUMCON,ioos:station:LUMCON:102:1,2019-02-01T04:30:00Z,29.1870,-90.6093,0.0,11.58,11111222 
LUMCON,ioos:station:LUMCON:102:1,2019-02-01T04:45:00Z,29.1870,-90.6093,0.0,11.59,11111222 
LUMCON,ioos:station:LUMCON:102:1,2019-02-01T05:00:00Z,29.1870,-90.6093,0.0,11.58,11111222 
LUMCON,ioos:station:LUMCON:102:1,2019-02-01T05:15:00Z,29.1870,-90.6093,0.0,11.52,11111222 
LUMCON,ioos:station:LUMCON:102:1,2019-02-01T05:30:00Z,29.1870,-90.6093,0.0,11.45,11111222 
LUMCON,ioos:station:LUMCON:102:1,2019-02-01T05:45:00Z,29.1870,-90.6093,0.0,11.39,11111222 
LUMCON,ioos:station:LUMCON:102:1,2019-02-01T06:00:00Z,29.1870,-90.6093,0.0,11.35,11111222 
LUMCON,ioos:station:LUMCON:102:1,2019-02-01T06:15:00Z,29.1870,-90.6093,0.0,11.33,11111222 
LUMCON,ioos:station:LUMCON:102:1,2019-02-01T06:30:00Z,29.1870,-90.6093,0.0,11.31,11111222 
LUMCON,ioos:station:LUMCON:102:1,2019-02-01T06:45:00Z,29.1870,-90.6093,0.0,11.31,11111222 
LUMCON,ioos:station:LUMCON:102:1,2019-02-01T07:00:00Z,29.1870,-90.6093,0.0,11.32,11111222 
LUMCON,ioos:station:LUMCON:102:1,2019-02-01T07:15:00Z,29.1870,-90.6093,0.0,11.34,11111222 
LUMCON,ioos:station:LUMCON:102:1,2019-02-01T07:30:00Z,29.1870,-90.6093,0.0,11.36,11111222 
LUMCON,ioos:station:LUMCON:102:1,2019-02-01T07:45:00Z,29.1870,-90.6093,0.0,11.37,11111222 
LUMCON,ioos:station:LUMCON:102:1,2019-02-01T08:00:00Z,29.1870,-90.6093,0.0,11.39,11111222 
LUMCON,ioos:station:LUMCON:102:1,2019-02-01T08:15:00Z,29.1870,-90.6093,0.0,11.41,11111222 
LUMCON,ioos:station:LUMCON:102:1,2019-02-01T08:30:00Z,29.1870,-90.6093,0.0,11.43,11111222 
LUMCON,ioos:station:LUMCON:102:1,2019-02-01T08:45:00Z,29.1870,-90.6093,0.0,11.44,11111222 
LUMCON,ioos:station:LUMCON:102:1,2019-02-01T09:00:00Z,29.1870,-90.6093,0.0,11.43,11111222 
LUMCON,ioos:station:LUMCON:102:1,2019-02-01T09:15:00Z,29.1870,-90.6093,0.0,11.41,11111222 
LUMCON,ioos:station:LUMCON:102:1,2019-02-01T09:30:00Z,29.1870,-90.6093,0.0,11.38,11111222 
LUMCON,ioos:station:LUMCON:102:1,2019-02-01T09:45:00Z,29.1870,-90.6093,0.0,11.36,11111222 
LUMCON,ioos:station:LUMCON:102:1,2019-02-01T10:00:00Z,29.1870,-90.6093,0.0,11.39,11111222 
LUMCON,ioos:station:LUMCON:102:1,2019-02-01T10:15:00Z,29.1870,-90.6093,0.0,11.42,11111222 
LUMCON,ioos:station:LUMCON:102:1,2019-02-01T10:30:00Z,29.1870,-90.6093,0.0,11.41,11111222 
LUMCON,ioos:station:LUMCON:102:1,2019-02-01T10:45:00Z,29.1870,-90.6093,0.0,11.4,11111222 
LUMCON,ioos:station:LUMCON:102:1,2019-02-01T11:00:00Z,29.1870,-90.6093,0.0,11.34,11111222 
LUMCON,ioos:station:LUMCON:102:1,2019-02-01T11:15:00Z,29.1870,-90.6093,0.0,11.3,11111222 
LUMCON,ioos:station:LUMCON:102:1,2019-02-01T11:30:00Z,29.1870,-90.6093,0.0,11.23,11111222 
LUMCON,ioos:station:LUMCON:102:1,2019-02-01T11:45:00Z,29.1870,-90.6093,0.0,11.21,11111222 
LUMCON,ioos:station:LUMCON:102:1,2019-02-01T12:00:00Z,29.1870,-90.6093,0.0,11.2,11111222 
LUMCON,ioos:station:LUMCON:102:1,2019-02-01T12:15:00Z,29.1870,-90.6093,0.0,11.24,11111222 
LUMCON,ioos:station:LUMCON:102:1,2019-02-01T12:30:00Z,29.1870,-90.6093,0.0,11.36,11111222 
LUMCON,ioos:station:LUMCON:102:1,2019-02-01T12:45:00Z,29.1870,-90.6093,0.0,11.43,11111222 
LUMCON,ioos:station:LUMCON:102:1,2019-02-01T13:00:00Z,29.1870,-90.6093,0.0,11.37,11111222 
LUMCON,ioos:station:LUMCON:102:1,2019-02-01T13:15:00Z,29.1870,-90.6093,0.0,11.41,11111222 
LUMCON,ioos:station:LUMCON:102:1,2019-02-01T13:30:00Z,29.1870,-90.6093,0.0,11.43,11111222 
LUMCON,ioos:station:LUMCON:102:1,2019-02-01T13:45:00Z,29.1870,-90.6093,0.0,11.41,11111222 
LUMCON,ioos:station:LUMCON:102:1,2019-02-01T14:00:00Z,29.1870,-90.6093,0.0,11.41,11111222 
LUMCON,ioos:station:LUMCON:102:1,2019-02-01T14:15:00Z,29.1870,-90.6093,0.0,11.44,11111222 
LUMCON,ioos:station:LUMCON:102:1,2019-02-01T14:30:00Z,29.1870,-90.6093,0.0,11.45,11111222 
LUMCON,ioos:station:LUMCON:102:1,2019-02-01T14:45:00Z,29.1870,-90.6093,0.0,11.46,11111222 
LUMCON,ioos:station:LUMCON:102:1,2019-02-01T15:00:00Z,29.1870,-90.6093,0.0,11.44,11111222 
LUMCON,ioos:station:LUMCON:102:1,2019-02-01T15:15:00Z,29.1870,-90.6093,0.0,11.46,11111222 
LUMCON,ioos:station:LUMCON:102:1,2019-02-01T15:30:00Z,29.1870,-90.6093,0.0,11.52,11111222 
LUMCON,ioos:station:LUMCON:102:1,2019-02-01T15:45:00Z,29.1870,-90.6093,0.0,11.46,11111222 
LUMCON,ioos:station:LUMCON:102:1,2019-02-01T16:00:00Z,29.1870,-90.6093,0.0,11.37,11111222 
LUMCON,ioos:station:LUMCON:102:1,2019-02-01T16:15:00Z,29.1870,-90.6093,0.0,11.39,11111222 
LUMCON,ioos:station:LUMCON:102:1,2019-02-01T16:30:00Z,29.1870,-90.6093,0.0,11.4,11111222 
LUMCON,ioos:station:LUMCON:102:1,2019-02-01T16:45:00Z,29.1870,-90.6093,0.0,11.47,11111222 
LUMCON,ioos:station:LUMCON:102:1,2019-02-01T17:00:00Z,29.1870,-90.6093,0.0,11.51,11111222 
LUMCON,ioos:station:LUMCON:102:1,2019-02-01T17:15:00Z,29.1870,-90.6093,0.0,11.5,11111222 
LUMCON,ioos:station:LUMCON:102:1,2019-02-01T17:30:00Z,29.1870,-90.6093,0.0,11.51,11111222 
LUMCON,ioos:station:LUMCON:102:1,2019-02-01T17:45:00Z,29.1870,-90.6093,0.0,11.51,11111222 
LUMCON,ioos:station:LUMCON:102:1,2019-02-01T18:00:00Z,29.1870,-90.6093,0.0,11.61,11111222 
LUMCON,ioos:station:LUMCON:102:1,2019-02-01T18:15:00Z,29.1870,-90.6093,0.0,11.59,11111222 
LUMCON,ioos:station:LUMCON:102:1,2019-02-01T18:30:00Z,29.1870,-90.6093,0.0,11.6,11111222 
LUMCON,ioos:station:LUMCON:102:1,2019-02-01T18:45:00Z,29.1870,-90.6093,0.0,11.64,11111222 
LUMCON,ioos:station:LUMCON:102:1,2019-02-01T19:00:00Z,29.1870,-90.6093,0.0,11.64,11111222 
LUMCON,ioos:station:LUMCON:102:1,2019-02-01T19:15:00Z,29.1870,-90.6093,0.0,11.67,11111222 
LUMCON,ioos:station:LUMCON:102:1,2019-02-01T19:30:00Z,29.1870,-90.6093,0.0,11.74,11111222 
LUMCON,ioos:station:LUMCON:102:1,2019-02-01T19:45:00Z,29.1870,-90.6093,0.0,11.79,11111222 
LUMCON,ioos:station:LUMCON:102:1,2019-02-01T20:00:00Z,29.1870,-90.6093,0.0,11.84,11111222 
LUMCON,ioos:station:LUMCON:102:1,2019-02-01T20:15:00Z,29.1870,-90.6093,0.0,11.89,11111222 
LUMCON,ioos:station:LUMCON:102:1,2019-02-01T20:30:00Z,29.1870,-90.6093,0.0,11.88,11111222 
LUMCON,ioos:station:LUMCON:102:1,2019-02-01T20:45:00Z,29.1870,-90.6093,0.0,11.94,11111222 
LUMCON,ioos:station:LUMCON:102:1,2019-02-01T21:00:00Z,29.1870,-90.6093,0.0,11.99,11111222 
LUMCON,ioos:station:LUMCON:102:1,2019-02-01T21:15:00Z,29.1870,-90.6093,0.0,12.08,11111222 
LUMCON,ioos:station:LUMCON:102:1,2019-02-01T21:30:00Z,29.1870,-90.6093,0.0,12.1,11111222 
LUMCON,ioos:station:LUMCON:102:1,2019-02-01T21:45:00Z,29.1870,-90.6093,0.0,12.1,11111222 
LUMCON,ioos:station:LUMCON:102:1,2019-02-01T22:00:00Z,29.1870,-90.6093,0.0,12.16,11111222 
LUMCON,ioos:station:LUMCON:102:1,2019-02-01T22:15:00Z,29.1870,-90.6093,0.0,12.14,11111222 
LUMCON,ioos:station:LUMCON:102:1,2019-02-01T22:30:00Z,29.1870,-90.6093,0.0,12.17,11111222 
LUMCON,ioos:station:LUMCON:102:1,2019-02-01T22:45:00Z,29.1870,-90.6093,0.0,12.13,11111222 
LUMCON,ioos:station:LUMCON:102:1,2019-02-01T23:00:00Z,29.1870,-90.6093,0.0,12.09,11111222 
LUMCON,ioos:station:LUMCON:102:1,2019-02-01T23:15:00Z,29.1870,-90.6093,0.0,12.13,11111222 
LUMCON,ioos:station:LUMCON:102:1,2019-02-01T23:30:00Z,29.1870,-90.6093,0.0,12.24,11111222 
LUMCON,ioos:station:LUMCON:102:1,2019-02-01T23:45:00Z,29.1870,-90.6093,0.0,12.3,11111222 
LUMCON,ioos:station:LUMCON:102:1,2019-02-02T00:00:00Z,29.1870,-90.6093,0.0,12.36,11111222 
LUMCON,ioos:station:LUMCON:102:1,2019-02-02T00:15:00Z,29.1870,-90.6093,0.0,12.48,11111222 
LUMCON,ioos:station:LUMCON:102:1,2019-02-02T00:30:00Z,29.1870,-90.6093,0.0,12.48,11111222 
LUMCON,ioos:station:LUMCON:102:1,2019-02-02T00:45:00Z,29.1870,-90.6093,0.0,12.44,11111222 
LUMCON,ioos:station:LUMCON:102:1,2019-02-02T01:00:00Z,29.1870,-90.6093,0.0,12.47,11111222 
LUMCON,ioos:station:LUMCON:102:1,2019-02-02T01:15:00Z,29.1870,-90.6093,0.0,12.48,11111222 
LUMCON,ioos:station:LUMCON:102:1,2019-02-02T01:30:00Z,29.1870,-90.6093,0.0,12.48,11111222 
LUMCON,ioos:station:LUMCON:102:1,2019-02-02T01:45:00Z,29.1870,-90.6093,0.0,12.48,11111222 
LUMCON,ioos:station:LUMCON:102:1,2019-02-02T02:00:00Z,29.1870,-90.6093,0.0,12.53,11111222 
LUMCON,ioos:station:LUMCON:102:1,2019-02-02T02:15:00Z,29.1870,-90.6093,0.0,12.55,11111222 
LUMCON,ioos:station:LUMCON:102:1,2019-02-02T02:30:00Z,29.1870,-90.6093,0.0,12.53,11111222 
LUMCON,ioos:station:LUMCON:102:1,2019-02-02T02:45:00Z,29.1870,-90.6093,0.0,12.5,11111222 
LUMCON,ioos:station:LUMCON:102:1,2019-02-02T03:00:00Z,29.1870,-90.6093,0.0,12.46,11111222 
LUMCON,ioos:station:LUMCON:102:1,2019-02-02T03:15:00Z,29.1870,-90.6093,0.0,12.43,11111222 
LUMCON,ioos:station:LUMCON:102:1,2019-02-02T03:30:00Z,29.1870,-90.6093,0.0,12.5,11111222 
LUMCON,ioos:station:LUMCON:102:1,2019-02-02T03:45:00Z,29.1870,-90.6093,0.0,12.53,11111222 
LUMCON,ioos:station:LUMCON:102:1,2019-02-02T04:00:00Z,29.1870,-90.6093,0.0,12.55,11111222 
LUMCON,ioos:station:LUMCON:102:1,2019-02-02T04:15:00Z,29.1870,-90.6093,0.0,12.56,11111222 
LUMCON,ioos:station:LUMCON:102:1,2019-02-02T04:30:00Z,29.1870,-90.6093,0.0,12.57,11111222 
LUMCON,ioos:station:LUMCON:102:1,2019-02-02T04:45:00Z,29.1870,-90.6093,0.0,12.54,11111222 
LUMCON,ioos:station:LUMCON:102:1,2019-02-02T05:00:00Z,29.1870,-90.6093,0.0,12.49,11111222 
LUMCON,ioos:station:LUMCON:102:1,2019-02-02T05:15:00Z,29.1870,-90.6093,0.0,12.47,11111222 
LUMCON,ioos:station:LUMCON:102:1,2019-02-02T05:30:00Z,29.1870,-90.6093,0.0,12.45,11111222 
LUMCON,ioos:station:LUMCON:102:1,2019-02-02T05:45:00Z,29.1870,-90.6093,0.0,12.44,11111222 
LUMCON,ioos:station:LUMCON:102:1,2019-02-02T06:00:00Z,29.1870,-90.6093,0.0,12.44,11111222 
LUMCON,ioos:station:LUMCON:102:1,2019-02-02T06:15:00Z,29.1870,-90.6093,0.0,12.41,11111222 
LUMCON,ioos:station:LUMCON:102:1,2019-02-02T06:30:00Z,29.1870,-90.6093,0.0,12.34,11111222 
LUMCON,ioos:station:LUMCON:102:1,2019-02-02T06:45:00Z,29.1870,-90.6093,0.0,12.3,11111222 
LUMCON,ioos:station:LUMCON:102:1,2019-02-02T07:00:00Z,29.1870,-90.6093,0.0,12.29,11111222 
LUMCON,ioos:station:LUMCON:102:1,2019-02-02T07:15:00Z,29.1870,-90.6093,0.0,12.26,11111222 
LUMCON,ioos:station:LUMCON:102:1,2019-02-02T07:30:00Z,29.1870,-90.6093,0.0,12.23,11111222 
LUMCON,ioos:station:LUMCON:102:1,2019-02-02T07:45:00Z,29.1870,-90.6093,0.0,12.25,11111222 
LUMCON,ioos:station:LUMCON:102:1,2019-02-02T08:00:00Z,29.1870,-90.6093,0.0,12.28,11111222 
LUMCON,ioos:station:LUMCON:102:1,2019-02-02T08:15:00Z,29.1870,-90.6093,0.0,12.33,11111222 
LUMCON,ioos:station:LUMCON:102:1,2019-02-02T08:30:00Z,29.1870,-90.6093,0.0,12.33,11111222 
LUMCON,ioos:station:LUMCON:102:1,2019-02-02T08:45:00Z,29.1870,-90.6093,0.0,12.33,11111222 
LUMCON,ioos:station:LUMCON:102:1,2019-02-02T09:00:00Z,29.1870,-90.6093,0.0,12.31,11111222 
LUMCON,ioos:station:LUMCON:102:1,2019-02-02T09:15:00Z,29.1870,-90.6093,0.0,12.25,11111222 
LUMCON,ioos:station:LUMCON:102:1,2019-02-02T09:30:00Z,29.1870,-90.6093,0.0,12.25,11111222 
LUMCON,ioos:station:LUMCON:102:1,2019-02-02T09:45:00Z,29.1870,-90.6093,0.0,12.22,11111222 
LUMCON,ioos:station:LUMCON:102:1,2019-02-02T10:00:00Z,29.1870,-90.6093,0.0,12.24,11111222 
LUMCON,ioos:station:LUMCON:102:1,2019-02-02T10:15:00Z,29.1870,-90.6093,0.0,12.27,11111222 
LUMCON,ioos:station:LUMCON:102:1,2019-02-02T10:30:00Z,29.1870,-90.6093,0.0,12.28,11111222 
LUMCON,ioos:station:LUMCON:102:1,2019-02-02T10:45:00Z,29.1870,-90.6093,0.0,12.26,11111222 
LUMCON,ioos:station:LUMCON:102:1,2019-02-02T11:00:00Z,29.1870,-90.6093,0.0,12.22,11111222 
LUMCON,ioos:station:LUMCON:102:1,2019-02-02T11:15:00Z,29.1870,-90.6093,0.0,12.23,11111222 
LUMCON,ioos:station:LUMCON:102:1,2019-02-02T11:30:00Z,29.1870,-90.6093,0.0,12.21,11111222 
LUMCON,ioos:station:LUMCON:102:1,2019-02-02T11:45:00Z,29.1870,-90.6093,0.0,12.2,11111222 
LUMCON,ioos:station:LUMCON:102:1,2019-02-02T12:00:00Z,29.1870,-90.6093,0.0,12.18,11111222 
LUMCON,ioos:station:LUMCON:102:1,2019-02-02T12:15:00Z,29.1870,-90.6093,0.0,12.17,11111222 
LUMCON,ioos:station:LUMCON:102:1,2019-02-02T12:30:00Z,29.1870,-90.6093,0.0,12.16,11111222 
LUMCON,ioos:station:LUMCON:102:1,2019-02-02T12:45:00Z,29.1870,-90.6093,0.0,12.14,11111222 
LUMCON,ioos:station:LUMCON:102:1,2019-02-02T13:00:00Z,29.1870,-90.6093,0.0,12.13,11111222 
LUMCON,ioos:station:LUMCON:102:1,2019-02-02T13:15:00Z,29.1870,-90.6093,0.0,12.14,11111222 
LUMCON,ioos:station:LUMCON:102:1,2019-02-02T13:30:00Z,29.1870,-90.6093,0.0,12.12,11111222 
LUMCON,ioos:station:LUMCON:102:1,2019-02-02T13:45:00Z,29.1870,-90.6093,0.0,12.12,11111222 
LUMCON,ioos:station:LUMCON:102:1,2019-02-02T14:00:00Z,29.1870,-90.6093,0.0,12.12,11111222 
LUMCON,ioos:station:LUMCON:102:1,2019-02-02T14:15:00Z,29.1870,-90.6093,0.0,12.14,11111222 
LUMCON,ioos:station:LUMCON:102:1,2019-02-02T14:30:00Z,29.1870,-90.6093,0.0,12.1,11111222 
LUMCON,ioos:station:LUMCON:102:1,2019-02-02T14:45:00Z,29.1870,-90.6093,0.0,12.15,11111222 
LUMCON,ioos:station:LUMCON:102:1,2019-02-02T15:00:00Z,29.1870,-90.6093,0.0,12.16,11111222 
LUMCON,ioos:station:LUMCON:102:1,2019-02-02T15:15:00Z,29.1870,-90.6093,0.0,12.18,11111222 
LUMCON,ioos:station:LUMCON:102:1,2019-02-02T15:30:00Z,29.1870,-90.6093,0.0,12.37,11111222 
LUMCON,ioos:station:LUMCON:102:1,2019-02-02T15:45:00Z,29.1870,-90.6093,0.0,12.2,11111222 
LUMCON,ioos:station:LUMCON:102:1,2019-02-02T16:00:00Z,29.1870,-90.6093,0.0,12.2,11111222 
LUMCON,ioos:station:LUMCON:102:1,2019-02-02T16:15:00Z,29.1870,-90.6093,0.0,12.2,11111222 
LUMCON,ioos:station:LUMCON:102:1,2019-02-02T16:30:00Z,29.1870,-90.6093,0.0,12.2,11111222 
LUMCON,ioos:station:LUMCON:102:1,2019-02-02T16:45:00Z,29.1870,-90.6093,0.0,12.21,11111222 
LUMCON,ioos:station:LUMCON:102:1,2019-02-02T17:00:00Z,29.1870,-90.6093,0.0,12.22,11111222 
LUMCON,ioos:station:LUMCON:102:1,2019-02-02T17:15:00Z,29.1870,-90.6093,0.0,12.24,11111222 
LUMCON,ioos:station:LUMCON:102:1,2019-02-02T17:30:00Z,29.1870,-90.6093,0.0,12.25,11111222 
LUMCON,ioos:station:LUMCON:102:1,2019-02-02T17:45:00Z,29.1870,-90.6093,0.0,12.28,11111222 
LUMCON,ioos:station:LUMCON:102:1,2019-02-02T18:00:00Z,29.1870,-90.6093,0.0,12.34,11111222 
LUMCON,ioos:station:LUMCON:102:1,2019-02-02T18:15:00Z,29.1870,-90.6093,0.0,12.36,11111222 
LUMCON,ioos:station:LUMCON:102:1,2019-02-02T18:30:00Z,29.1870,-90.6093,0.0,12.37,11111222 
LUMCON,ioos:station:LUMCON:102:1,2019-02-02T18:45:00Z,29.1870,-90.6093,0.0,12.35,11111222 
LUMCON,ioos:station:LUMCON:102:1,2019-02-02T19:00:00Z,29.1870,-90.6093,0.0,12.35,11111222 
LUMCON,ioos:station:LUMCON:102:1,2019-02-02T19:15:00Z,29.1870,-90.6093,0.0,12.37,11111222 
LUMCON,ioos:station:LUMCON:102:1,2019-02-02T19:30:00Z,29.1870,-90.6093,0.0,12.38,11111222 
LUMCON,ioos:station:LUMCON:102:1,2019-02-02T19:45:00Z,29.1870,-90.6093,0.0,12.39,11111222 
LUMCON,ioos:station:LUMCON:102:1,2019-02-02T20:00:00Z,29.1870,-90.6093,0.0,12.38,11111222 
LUMCON,ioos:station:LUMCON:102:1,2019-02-02T20:15:00Z,29.1870,-90.6093,0.0,12.4,11111222 
LUMCON,ioos:station:LUMCON:102:1,2019-02-02T20:30:00Z,29.1870,-90.6093,0.0,12.4,11111222 
LUMCON,ioos:station:LUMCON:102:1,2019-02-02T20:45:00Z,29.1870,-90.6093,0.0,12.41,11111222 
LUMCON,ioos:station:LUMCON:102:1,2019-02-02T21:00:00Z,29.1870,-90.6093,0.0,12.43,11111222 
LUMCON,ioos:station:LUMCON:102:1,2019-02-02T21:15:00Z,29.1870,-90.6093,0.0,12.43,11111222 
LUMCON,ioos:station:LUMCON:102:1,2019-02-02T21:30:00Z,29.1870,-90.6093,0.0,12.45,11111222 
LUMCON,ioos:station:LUMCON:102:1,2019-02-02T21:45:00Z,29.1870,-90.6093,0.0,12.5,11111222 
LUMCON,ioos:station:LUMCON:102:1,2019-02-02T22:00:00Z,29.1870,-90.6093,0.0,12.55,11111222 
LUMCON,ioos:station:LUMCON:102:1,2019-02-02T22:15:00Z,29.1870,-90.6093,0.0,12.62,11111222 
LUMCON,ioos:station:LUMCON:102:1,2019-02-02T22:30:00Z,29.1870,-90.6093,0.0,12.75,11111222 
LUMCON,ioos:station:LUMCON:102:1,2019-02-02T22:45:00Z,29.1870,-90.6093,0.0,12.79,11111222 
LUMCON,ioos:station:LUMCON:102:1,2019-02-02T23:00:00Z,29.1870,-90.6093,0.0,12.86,11111222 
LUMCON,ioos:station:LUMCON:102:1,2019-02-02T23:15:00Z,29.1870,-90.6093,0.0,12.85,11111222 
LUMCON,ioos:station:LUMCON:102:1,2019-02-02T23:30:00Z,29.1870,-90.6093,0.0,12.78,11111222 
LUMCON,ioos:station:LUMCON:102:1,2019-02-02T23:45:00Z,29.1870,-90.6093,0.0,12.81,11111222 
LUMCON,ioos:station:LUMCON:102:1,2019-02-03T00:00:00Z,29.1870,-90.6093,0.0,12.84,11111222 
LUMCON,ioos:station:LUMCON:102:1,2019-02-03T00:15:00Z,29.1870,-90.6093,0.0,12.83,11111222 
LUMCON,ioos:station:LUMCON:102:1,2019-02-03T00:30:00Z,29.1870,-90.6093,0.0,12.83,11111222 
LUMCON,ioos:station:LUMCON:102:1,2019-02-03T00:45:00Z,29.1870,-90.6093,0.0,12.8,11111222 
LUMCON,ioos:station:LUMCON:102:1,2019-02-03T01:00:00Z,29.1870,-90.6093,0.0,12.75,11111222 
LUMCON,ioos:station:LUMCON:102:1,2019-02-03T01:15:00Z,29.1870,-90.6093,0.0,12.78,11111222 
LUMCON,ioos:station:LUMCON:102:1,2019-02-03T01:30:00Z,29.1870,-90.6093,0.0,13.15,11111222 
LUMCON,ioos:station:LUMCON:102:1,2019-02-03T01:45:00Z,29.1870,-90.6093,0.0,13.37,11111222 
LUMCON,ioos:station:LUMCON:102:1,2019-02-03T02:00:00Z,29.1870,-90.6093,0.0,13.53,11111222 
LUMCON,ioos:station:LUMCON:102:1,2019-02-03T02:15:00Z,29.1870,-90.6093,0.0,13.65,11111222 
LUMCON,ioos:station:LUMCON:102:1,2019-02-03T02:30:00Z,29.1870,-90.6093,0.0,13.7,11111222 
LUMCON,ioos:station:LUMCON:102:1,2019-02-03T02:45:00Z,29.1870,-90.6093,0.0,13.79,11111222 
LUMCON,ioos:station:LUMCON:102:1,2019-02-03T03:00:00Z,29.1870,-90.6093,0.0,13.78,11111222 
LUMCON,ioos:station:LUMCON:102:1,2019-02-03T03:15:00Z,29.1870,-90.6093,0.0,13.8,11111222 
LUMCON,ioos:station:LUMCON:102:1,2019-02-03T03:30:00Z,29.1870,-90.6093,0.0,13.79,11111222 
LUMCON,ioos:station:LUMCON:102:1,2019-02-03T03:45:00Z,29.1870,-90.6093,0.0,13.8,11111222 
LUMCON,ioos:station:LUMCON:102:1,2019-02-03T04:00:00Z,29.1870,-90.6093,0.0,13.79,11111222 
LUMCON,ioos:station:LUMCON:102:1,2019-02-03T04:15:00Z,29.1870,-90.6093,0.0,13.76,11111222 
LUMCON,ioos:station:LUMCON:102:1,2019-02-03T04:30:00Z,29.1870,-90.6093,0.0,13.91,11111222 
LUMCON,ioos:station:LUMCON:102:1,2019-02-03T04:45:00Z,29.1870,-90.6093,0.0,13.9,11111222 
LUMCON,ioos:station:LUMCON:102:1,2019-02-03T05:00:00Z,29.1870,-90.6093,0.0,13.87,11111222 
LUMCON,ioos:station:LUMCON:102:1,2019-02-03T05:15:00Z,29.1870,-90.6093,0.0,13.85,11111222 
LUMCON,ioos:station:LUMCON:102:1,2019-02-03T05:30:00Z,29.1870,-90.6093,0.0,13.83,11111222 
LUMCON,ioos:station:LUMCON:102:1,2019-02-03T05:45:00Z,29.1870,-90.6093,0.0,13.81,11111222 
LUMCON,ioos:station:LUMCON:102:1,2019-02-03T06:00:00Z,29.1870,-90.6093,0.0,13.68,11111222 
LUMCON,ioos:station:LUMCON:102:1,2019-02-03T06:15:00Z,29.1870,-90.6093,0.0,13.37,11111222 
LUMCON,ioos:station:LUMCON:102:1,2019-02-03T06:30:00Z,29.1870,-90.6093,0.0,13.27,11111222 
LUMCON,ioos:station:LUMCON:102:1,2019-02-03T06:45:00Z,29.1870,-90.6093,0.0,13.13,11111222 
LUMCON,ioos:station:LUMCON:102:1,2019-02-03T07:00:00Z,29.1870,-90.6093,0.0,13.01,11111222 
LUMCON,ioos:station:LUMCON:102:1,2019-02-03T07:15:00Z,29.1870,-90.6093,0.0,12.98,11111222 
LUMCON,ioos:station:LUMCON:102:1,2019-02-03T07:30:00Z,29.1870,-90.6093,0.0,12.94,11111222 
LUMCON,ioos:station:LUMCON:102:1,2019-02-03T07:45:00Z,29.1870,-90.6093,0.0,12.91,11111222 
LUMCON,ioos:station:LUMCON:102:1,2019-02-03T08:00:00Z,29.1870,-90.6093,0.0,12.9,11111222 
LUMCON,ioos:station:LUMCON:102:1,2019-02-03T08:15:00Z,29.1870,-90.6093,0.0,12.87,11111222 
LUMCON,ioos:station:LUMCON:102:1,2019-02-03T08:30:00Z,29.1870,-90.6093,0.0,12.85,11111222 
LUMCON,ioos:station:LUMCON:102:1,2019-02-03T08:45:00Z,29.1870,-90.6093,0.0,12.82,11111222 
LUMCON,ioos:station:LUMCON:102:1,2019-02-03T09:00:00Z,29.1870,-90.6093,0.0,12.83,11111222 
LUMCON,ioos:station:LUMCON:102:1,2019-02-03T09:15:00Z,29.1870,-90.6093,0.0,12.83,11111222 
LUMCON,ioos:station:LUMCON:102:1,2019-02-03T09:30:00Z,29.1870,-90.6093,0.0,12.83,11111222 
LUMCON,ioos:station:LUMCON:102:1,2019-02-03T09:45:00Z,29.1870,-90.6093,0.0,12.85,11111222 
LUMCON,ioos:station:LUMCON:102:1,2019-02-03T10:00:00Z,29.1870,-90.6093,0.0,12.86,11111222 
LUMCON,ioos:station:LUMCON:102:1,2019-02-03T10:15:00Z,29.1870,-90.6093,0.0,12.87,11111222 
LUMCON,ioos:station:LUMCON:102:1,2019-02-03T10:30:00Z,29.1870,-90.6093,0.0,12.88,11111222 
LUMCON,ioos:station:LUMCON:102:1,2019-02-03T10:45:00Z,29.1870,-90.6093,0.0,12.9,11111222 
LUMCON,ioos:station:LUMCON:102:1,2019-02-03T11:00:00Z,29.1870,-90.6093,0.0,12.92,11111222 
LUMCON,ioos:station:LUMCON:102:1,2019-02-03T11:15:00Z,29.1870,-90.6093,0.0,12.91,11111222 
LUMCON,ioos:station:LUMCON:102:1,2019-02-03T11:30:00Z,29.1870,-90.6093,0.0,12.91,11111222 
LUMCON,ioos:station:LUMCON:102:1,2019-02-03T11:45:00Z,29.1870,-90.6093,0.0,12.92,11111222 
LUMCON,ioos:station:LUMCON:102:1,2019-02-03T12:00:00Z,29.1870,-90.6093,0.0,12.94,11111222 
LUMCON,ioos:station:LUMCON:102:1,2019-02-03T12:15:00Z,29.1870,-90.6093,0.0,12.94,11111222 
LUMCON,ioos:station:LUMCON:102:1,2019-02-03T12:30:00Z,29.1870,-90.6093,0.0,12.95,11111222 
LUMCON,ioos:station:LUMCON:102:1,2019-02-03T12:45:00Z,29.1870,-90.6093,0.0,12.97,11111222 
LUMCON,ioos:station:LUMCON:102:1,2019-02-03T13:00:00Z,29.1870,-90.6093,0.0,12.98,11111222 
LUMCON,ioos:station:LUMCON:102:1,2019-02-03T13:15:00Z,29.1870,-90.6093,0.0,13.02,11111222 
LUMCON,ioos:station:LUMCON:102:1,2019-02-03T13:30:00Z,29.1870,-90.6093,0.0,13.05,11111222 
LUMCON,ioos:station:LUMCON:102:1,2019-02-03T13:45:00Z,29.1870,-90.6093,0.0,13.07,11111222 
LUMCON,ioos:station:LUMCON:102:1,2019-02-03T14:00:00Z,29.1870,-90.6093,0.0,13.1,11111222 
LUMCON,ioos:station:LUMCON:102:1,2019-02-03T14:15:00Z,29.1870,-90.6093,0.0,13.09,11111222 
LUMCON,ioos:station:LUMCON:102:1,2019-02-03T14:30:00Z,29.1870,-90.6093,0.0,13.1,11111222 
LUMCON,ioos:station:LUMCON:102:1,2019-02-03T14:45:00Z,29.1870,-90.6093,0.0,13.09,11111222 
LUMCON,ioos:station:LUMCON:102:1,2019-02-03T15:00:00Z,29.1870,-90.6093,0.0,13.09,11111222 
LUMCON,ioos:station:LUMCON:102:1,2019-02-03T15:15:00Z,29.1870,-90.6093,0.0,13.08,11111222 
LUMCON,ioos:station:LUMCON:102:1,2019-02-03T15:30:00Z,29.1870,-90.6093,0.0,12.99,11111222 
LUMCON,ioos:station:LUMCON:102:1,2019-02-03T15:45:00Z,29.1870,-90.6093,0.0,12.96,11111222 
LUMCON,ioos:station:LUMCON:102:1,2019-02-03T16:00:00Z,29.1870,-90.6093,0.0,12.95,11111222 
LUMCON,ioos:station:LUMCON:102:1,2019-02-03T16:15:00Z,29.1870,-90.6093,0.0,12.94,11111222 
LUMCON,ioos:station:LUMCON:102:1,2019-02-03T16:30:00Z,29.1870,-90.6093,0.0,12.93,11111222 
LUMCON,ioos:station:LUMCON:102:1,2019-02-03T16:45:00Z,29.1870,-90.6093,0.0,12.92,11111222 
LUMCON,ioos:station:LUMCON:102:1,2019-02-03T17:00:00Z,29.1870,-90.6093,0.0,12.92,11111222 
LUMCON,ioos:station:LUMCON:102:1,2019-02-03T17:15:00Z,29.1870,-90.6093,0.0,12.94,11111222 
LUMCON,ioos:station:LUMCON:102:1,2019-02-03T17:30:00Z,29.1870,-90.6093,0.0,12.95,11111222 